Weather History for KPIE - November, 2014

Change the Weather History Date:

Tuesday, November 18, 2014

  Actual Average Record
Temperature  
Mean Temperature 54 °F -  
Max Temperature 61 °F 78 °F 85 °F (1958)
Min Temperature 46 °F 62 °F 38 °F (1951)
Degree Days  
Heating Degree Days 10    
Growing Degree Days 4 (Base 50)    
Moisture  
Dew Point 41 °F    
Average Humidity 67    
Maximum Humidity 100    
Minimum Humidity 50    
Precipitation  
Precipitation 0.00 in - - ()
Sea Level Pressure  
Sea Level Pressure 30.18 in    
Wind  
Wind Speed 15 mph (North)    
Max Wind Speed 20 mph    
Max Gust Speed 29 mph    
Visibility 10 miles    
Events      
Averages and records for this station are not official NWS values.
T = Trace of Precipitation, MM = Missing Value Source: NWS Daily Summary

Daily Weather History Graph

Daily Weather History Graph

Search for Another Location

Airport or City:

Trip Planner

Search our weather history database for the weather conditions in past years. The results will help you decide how hot, cold, wet, or windy it might be!

Date:

Astronomy

Nov. 18, 2014 Rise Set
Actual Time 6:54 AM EST 5:37 PM EST
Civil Twilight 6:29 AM EST 6:02 PM EST
Nautical Twilight 6:01 AM EST 6:30 PM EST
Astronomical Twilight 5:33 AM EST 6:58 PM EST
Moon 3:11 AM EST (11/18) 3:13 PM EST (11/18)
Length of Visible Light 11h 32m
Length of Day
10h 42m
Waning Crescent, 15% of the Moon is Illuminated
Nov 18
Waning Crescent
Nov 22
New
Nov 29
First Quarter
Dec 6
Full
Dec 14
Last Quarter

Hourly Weather History & Observations

Time (EST) Temp. Dew Point Humidity Pressure Visibility Wind Dir Wind Speed Gust Speed Precip Events Conditions
12:53 AM 61.0 °F 61.0 °F 100% 30.02 in 10.0 mi NNW 15.0 mph - N/A   Overcast
1:36 AM 60.1 °F 57.9 °F 93% 30.04 in 10.0 mi NNW 19.6 mph 28.8 mph N/A   Overcast
1:53 AM 59.0 °F 55.9 °F 90% 30.04 in 10.0 mi NNW 18.4 mph - N/A   Overcast
2:31 AM 57.9 °F 54.0 °F 87% 30.04 in 10.0 mi NNW 18.4 mph 27.6 mph N/A   Overcast
2:53 AM 57.9 °F 54.0 °F 87% 30.02 in 10.0 mi NNW 16.1 mph - N/A   Overcast
3:53 AM 55.9 °F 51.1 °F 84% 30.06 in 10.0 mi NNW 16.1 mph - N/A   Mostly Cloudy
4:53 AM 55.0 °F 48.0 °F 77% 30.06 in 10.0 mi NNW 18.4 mph - N/A   Overcast
5:17 AM 55.0 °F 48.0 °F 77% 30.08 in 10.0 mi North 13.8 mph 21.9 mph N/A   Scattered Clouds
5:53 AM 54.0 °F 46.9 °F 77% 30.11 in 10.0 mi North 16.1 mph 23.0 mph N/A   Overcast
6:53 AM 53.1 °F 45.0 °F 74% 30.14 in 10.0 mi North 18.4 mph 28.8 mph N/A   Overcast
7:53 AM 52.0 °F 44.1 °F 74% 30.17 in 10.0 mi North 15.0 mph - N/A   Scattered Clouds
8:53 AM 50.0 °F 41.0 °F 71% 30.18 in 10.0 mi North 17.3 mph 26.5 mph N/A   Overcast
9:53 AM 50.0 °F 39.9 °F 68% 30.21 in 10.0 mi North 15.0 mph - N/A   Mostly Cloudy
10:53 AM 50.0 °F 35.1 °F 57% 30.24 in 10.0 mi North 16.1 mph - N/A   Overcast
11:53 AM 48.9 °F 35.1 °F 59% 30.25 in 10.0 mi North 15.0 mph 19.6 mph N/A   Overcast
12:53 PM 50.0 °F 32.0 °F 50% 30.23 in 10.0 mi North 11.5 mph - N/A   Mostly Cloudy
1:53 PM 50.0 °F 33.1 °F 52% 30.23 in 10.0 mi North 10.4 mph - N/A   Overcast
2:53 PM 52.0 °F 36.0 °F 54% 30.22 in 10.0 mi North 8.1 mph - N/A   Scattered Clouds
3:53 PM 52.0 °F 34.0 °F 50% 30.22 in 10.0 mi North 8.1 mph - N/A   Mostly Cloudy
4:53 PM 51.1 °F 34.0 °F 52% 30.24 in 10.0 mi North 6.9 mph - N/A   Scattered Clouds
5:53 PM 50.0 °F 35.1 °F 57% 30.26 in 10.0 mi North 10.4 mph - N/A   Clear
6:53 PM 50.0 °F 35.1 °F 57% 30.27 in 10.0 mi North 9.2 mph - N/A   Clear
7:53 PM 50.0 °F 36.0 °F 59% 30.30 in 10.0 mi NNE 8.1 mph - N/A   Clear
8:53 PM 50.0 °F 34.0 °F 54% 30.31 in 10.0 mi NNE 11.5 mph - N/A   Clear
9:53 PM 50.0 °F 33.1 °F 52% 30.32 in 10.0 mi North 15.0 mph - N/A   Clear
10:53 PM 48.0 °F 30.9 °F 52% 30.33 in 10.0 mi NNE 16.1 mph 27.6 mph N/A   Clear
11:53 PM 46.9 °F 30.0 °F 52% 30.32 in 10.0 mi NNE 15.0 mph 25.3 mph N/A   Clear